Location: Shannon
(40.5500°S, 175.4167°E)
Time: 11:30:44
(UTC+00:00)

Cosmos 2242 Rocket - Pass Details

Date: 17 November 2025
Orbit: 614 x 644 km, 82.5° (Epoch: 09 December)

Event Time Altitude Azimuth Distance (km) Brightness Sun altitude
Rises 16:13:33 0° 190° (S) 2,940 7.4 -6.8°
Reaches altitude 10° 16:15:48 10° 191° (S) 2,021 6.5 -6.4°
Maximum altitude 16:20:16 76° 275° (W) 650 3.6 -5.7°
Drops below altitude 10° 16:24:40 10° 1° (N) 1,981 5.9 -5.0°
Sets 16:26:52 0° 2° (N) 2,877 6.7 -4.6°
